Lid_Strength_Index
2 3 3 4 4 5 7 12 15 9 8 12 14 14 10 7 8 9 9 10 10 11 11 12 12 12 10 9 11 12 11 13 16 14 12 12 12 13 13 16 18 19 19 17
2 3 3 4 4 5 9 13 12 8 8 16 16 13 11 9 9 9 10 11 9 10 12 13 12 10 9 9 10 12 13 14 18 17 14 13 12 13 14 15 16 19 20 17
3 2 3 3 4 4 9 13 16 13 12 14 15 14 13 12 9 9 9 11 11 12 13 12 12 11 9 9 10 6 10 14 16 18 16 15 16 14 14 15 18 19 18 17
3 3 2 3 4 4 9 13 16 14 15 15 15 13 13 13 12 10 10 11 11 12 14 13 14 12 11 10 8 11 12 15 16 15 15 15 16 15 15 16 16 16 16 15
3 3 3 3 4 5 10 14 14 14 14 14 16 13 14 13 11 11 11 13 11 12 13 13 14 13 13 13 12 13 13 15 15 16 13 14 14 14 14 14 15 15 15 15
2 3 3 3 4 6 10 11 11 12 14 16 16 15 14 12 11 10 10 11 12 13 12 11 11 12 12 12 14 14 14 15 15 17 13 13 15 13 14 14 14 14 16 14
2 2 3 3 4 6 8 10 11 13 15 15 15 14 12 12 12 12 10 11 13 11 10 11 12 13 13 12 13 13 15 15 15 18 15 19 14 13 13 13 13 13 13 13
2 2 2 3 3 5 8 9 10 13 15 14 13 13 13 12 12 13 11 11 11 11 11 12 15 14 14 14 14 14 13 14 16 19 18 15 15 14 15 15 15 12 13 13
2 3 3 3 3 4 7 8 9 11 13 15 12 13 13 14 15 14 12 11 11 11 12 13 17 18 15 15 15 14 13 13 15 17 19 20 16 14 13 15 18 15 12 13
2 3 3 3 4 4 6 8 8 10 13 12 11 13 14 13 14 14 13 12 12 13 14 15 17 16 13 15 16 17 17 17 17 17 19 16 13 13 13 19 17 13 12 12
2 2 3 3 3 4 5 7 8 8 12 12 10 9 12 12 13 14 13 13 14 14 16 16 16 16 14 15 14 16 16 19 19 18 19 19 12 14 16 14 13 13 13 12
3 2 3 3 3 3 4 8 7 6 8 11 9 8 8 9 9 11 12 13 13 12 15 16 15 14 15 14 15 15 16 14 16 16 16 13 13 14 13 12 12 12 12 12
3 3 3 3 3 3 5 9 9 9 11 11 12 12 9 7 7 7 11 12 11 12 12 13 13 14 13 15 15 15 14 14 15 15 14 13 12 12 12 11 12 11 12 12
2 3 3 3 4 4 6 9 9 10 11 14 13 9 10 8 8 8 8 8 10 11 11 12 13 15 11 13 13 14 13 14 15 15 14 14 13 12 11 11 11 11 12 12
3 3 3 3 4 4 8 10 9 9 12 15 13 11 10 9 9 8 8 9 11 12 13 14 15 12 12 14 14 15 13 13 14 14 13 14 13 12 11 11 11 11 12 13
3 3 3 4 4 5 8 11 10 8 9 13 16 11 11 11 11 11 11 10 12 12 13 13 13 11 11 17 17 11 12 12 12 12 14 13 13 11 11 11 11 11 12 12
3 3 4 4 4 7 10 12 10 7 9 13 15 15 11 11 12 12 12 12 12 12 13 14 12 12 11 18 15 10 10 10 11 13 12 13 12 11 11 11 11 10 12 12
3 4 4 4 5 6 9 7 6 7 10 11 15 14 13 13 14 14 13 14 13 13 13 13 13 13 13 16 11 9 9 9 11 12 12 13 12 11 12 12 12 13 13 13
3 4 4 6 8 9 9 5 6 7 11 15 14 17 18 13 13 13 13 13 16 13 14 13 12 14 16 11 10 9 9 10 12 14 13 13 12 12 13 13 13 13 14 14
4 6 9 12 10 5 6 8 10 10 11 11 13 13 16 13 15 15 13 12 13 15 14 13 15 13 10 9 9 9 9 10 13 13 14 13 14 13 14 13 13 13 14 14
8 11 12 10 6 10 12 13 14 14 14 12 12 13 15 12 14 14 10 11 11 14 14 14 15 16 11 8 8 7 8 11 12 11 11 11 11 12 13 13 13 14 14 14
9 9 8 8 11 13 15 16 14 15 17 14 13 13 13 13 11 12 11 11 12 15 14 17 15 12 10 10 8 8 8 10 12 11 11 12 12 12 13 14 14 14 14 14
9 10 12 14 14 18 18 19 17 16 14 15 13 13 12 10 9 10 11 13 14 14 18 15 14 11 10 11 12 12 13 12 12 12 12 12 13 12 13 14 14 14 14 13
13 15 18 18 19 17 18 18 16 13 15 14 13 14 11 10 11 11 13 12 15 18 18 15 13 12 12 12 12 13 14 13 12 12 13 13 13 13 13 13 13 13 14 14
15 15 20 18 17 17 16 16 14 14 12 12 14 13 12 12 12 12 13 17 19 16 15 13 12 12 13 13 13 14 14 13 13 13 13 13 13 13 14 14 13 13 13 14
14 16 19 17 17 19 17 15 15 14 12 12 11 12 12 12 12 13 13 18 17 14 13 11 12 12 12 14 14 14 14 13 13 13 13 13 13 14 14 14 13 14 14 14
16 16 16 16 16 15 14 14 13 13 11 16 12 14 14 12 13 15 15 15 13 11 11 11 12 13 13 14 14 14 13 14 14 13 13 14 14 13 13 14 15 14 14 14